TimeEST,TemperatureF,Dew PointF,Humidity,Sea Level PressureIn,VisibilityMPH,Wind Direction,Wind SpeedMPH,Gust SpeedMPH,PrecipitationIn,Events,Conditions,WindDirDegrees,DateUTC
12:54 AM,37.0,21.0,52,30.01,10.0,South,5.8,-,N/A,,Overcast,180,2012-12-07 05:54:00
1:54 AM,37.9,18.0,45,30.01,10.0,SSW,3.5,-,N/A,,Overcast,210,2012-12-07 06:54:00
2:54 AM,37.0,21.9,54,30.01,10.0,SSW,4.6,-,N/A,,Overcast,200,2012-12-07 07:54:00
3:54 AM,36.0,24.1,62,30.00,10.0,SSW,5.8,-,N/A,,Overcast,200,2012-12-07 08:54:00
4:54 AM,37.9,25.0,60,29.99,10.0,South,3.5,-,N/A,,Overcast,180,2012-12-07 09:54:00
5:54 AM,37.9,27.0,65,29.98,10.0,SSW,5.8,-,N/A,,Overcast,200,2012-12-07 10:54:00
6:54 AM,41.0,28.9,62,29.98,10.0,South,8.1,-,N/A,,Overcast,190,2012-12-07 11:54:00
7:54 AM,41.0,30.9,67,29.97,10.0,South,9.2,-,N/A,,Overcast,190,2012-12-07 12:54:00
8:54 AM,42.1,33.1,70,29.98,10.0,SSW,6.9,-,N/A,,Overcast,200,2012-12-07 13:54:00
9:54 AM,45.0,34.0,65,29.98,10.0,SW,9.2,-,N/A,,Overcast,220,2012-12-07 14:54:00
10:54 AM,46.0,35.1,66,29.98,10.0,SW,12.7,-,N/A,,Overcast,230,2012-12-07 15:54:00
11:54 AM,46.0,37.0,71,29.97,10.0,SW,8.1,-,N/A,,Overcast,230,2012-12-07 16:54:00
12:54 PM,46.0,37.9,73,29.96,10.0,SW,11.5,-,N/A,,Overcast,230,2012-12-07 17:54:00
1:30 PM,46.4,39.2,76,29.93,10.0,SW,10.4,-,N/A,,Overcast,220,2012-12-07 18:30:00
1:54 PM,46.0,39.0,76,29.94,10.0,WSW,10.4,-,N/A,,Overcast,240,2012-12-07 18:54:00
2:28 PM,46.4,39.2,76,29.92,10.0,SW,9.2,-,N/A,,Overcast,230,2012-12-07 19:28:00
2:54 PM,45.0,39.0,80,29.94,10.0,SW,6.9,-,N/A,,Overcast,220,2012-12-07 19:54:00
3:54 PM,45.0,39.0,80,29.95,10.0,SW,8.1,-,N/A,,Overcast,230,2012-12-07 20:54:00
4:52 PM,44.6,39.2,81,29.93,10.0,Calm,Calm,-,N/A,,Overcast,0,2012-12-07 21:52:00
4:54 PM,45.0,39.0,80,29.95,10.0,Calm,Calm,-,N/A,,Overcast,0,2012-12-07 21:54:00
5:54 PM,44.1,39.0,82,29.97,10.0,SW,3.5,-,N/A,,Overcast,220,2012-12-07 22:54:00
6:54 PM,44.1,39.9,85,29.97,10.0,WSW,4.6,-,N/A,,Overcast,250,2012-12-07 23:54:00
7:49 PM,44.6,39.2,81,29.95,10.0,Calm,Calm,-,N/A,,Overcast,0,2012-12-08 00:49:00
7:54 PM,44.1,39.0,82,29.97,10.0,Calm,Calm,-,N/A,,Overcast,0,2012-12-08 00:54:00
8:01 PM,44.6,39.2,81,29.95,10.0,Calm,Calm,-,N/A,,Overcast,0,2012-12-08 01:01:00
8:54 PM,44.1,39.9,85,29.97,10.0,Calm,Calm,-,N/A,,Overcast,0,2012-12-08 01:54:00
9:54 PM,43.0,39.0,86,29.95,10.0,SE,4.6,-,N/A,,Overcast,130,2012-12-08 02:54:00
10:54 PM,43.0,39.0,86,29.94,10.0,SSE,4.6,-,N/A,,Overcast,150,2012-12-08 03:54:00
11:54 PM,42.1,39.0,89,29.93,10.0,Calm,Calm,-,0.00,Rain,Light Rain,0,2012-12-08 04:54:00